Location: Berkeley
(37.8716°N, 122.2727°W)
Time: 20:45:45
(UTC-07:00)

Envisat - Pass Details

Date: 14 May 2026
Orbit: 761 x 763 km, 98.4° (Epoch: 9 June)

Event Time Altitude Azimuth Distance (km) Brightness Sun altitude
Rises 02:35:18 0° 31° (NNE) 3,228 7.4 -29.6°
Reaches altitude 10° 02:38:21 10° 51° (NE) 2,297 6.2 -29.4°
Maximum altitude 02:41:44 18° 93° (E) 1,809 5.1 -29.1°
Enters shadow 02:42:57 17° 111° (ESE) 1,877 5.0 -29.0°
